Find GGSE 1

NORAD ID: 728 Int'l Des: 1964-001 Owner: NRO/NRL Country: US operational
LEOCIRCULAR

現在のビュー

3D地球を読み込み中...

GGSE 1について

説明を読み込み中...

次回通過

Passes for default location (London). Set your location on the main map for personalized predictions.

高度履歴

Loading altitude history...

軌道要素

1 728U 64001B 26159.51919593 .00000034 00000-0 62364-4 0 9995
2 728 69.9071 222.2465 0013809 346.6230 13.4508 13.97774121178468
Epoch: Jun 8, 2026 • Age: 12 hours

現在のステータス

高度 901.4 km
速度 7.41 km/s
衛星直下点 40.64°N, 28.42°W
タイプ other

Most Searched